EIN887 LEMG-EICK

Flight info

Callsign EIN887
Flight time 2h 23m
Altitude 36000
Route BLN N865 DELOG DCT TULTA/M075F360 DCT MAPAG DCT SOVIX SOVIX1R
Aircraft A320/M-SDE3FGHIRWY/LB1

Departure

Time 2026-04-30 18:03
Airport Málaga-Costa del Sol Airport (LEMG)

Arrival

Time 2026-04-30 20:26
Airport Cork International Airport (EICK)
Time Latitude Longitude Altitude Speed Heading
2026-04-30 17:39 36.67466 -4.49363 35 ft 0 kts 88°
2026-04-30 17:56 36.67460 -4.49422 32 ft 4 kts 35°
2026-04-30 17:57 36.67436 -4.49412 34 ft 0 kts 311°
2026-04-30 17:59 36.67452 -4.49442 31 ft 6 kts 296°
2026-04-30 18:00 36.67599 -4.49768 35 ft 18 kts 313°
2026-04-30 18:00 36.67927 -4.50227 35 ft 25 kts 311°
2026-04-30 18:01 36.68170 -4.50565 35 ft 27 kts 311°
2026-04-30 18:02 36.68499 -4.51068 36 ft 16 kts 255°
2026-04-30 18:02 36.68153 -4.50838 35 ft 75 kts 131°
2026-04-30 18:03 36.66205 -4.48101 837 ft 164 kts 134°
2026-04-30 18:04 36.63689 -4.44605 2066 ft 203 kts 132°
2026-04-30 18:05 36.59807 -4.38393 4401 ft 239 kts 104°
2026-04-30 18:06 36.58535 -4.30098 7244 ft 251 kts 90°
2026-04-30 18:07 36.62131 -4.22311 9802 ft 277 kts 45°
2026-04-30 18:08 36.67626 -4.18960 10768 ft 329 kts 17°
2026-04-30 18:09 36.76987 -4.15260 12829 ft 365 kts 17°
2026-04-30 18:10 36.86868 -4.11426 15217 ft 380 kts 17°
2026-04-30 18:11 36.97094 -4.07430 17588 ft 390 kts 17°
2026-04-30 18:11 37.04956 -4.04348 19149 ft 399 kts 17°
2026-04-30 18:12 37.13002 -4.01187 20596 ft 409 kts 17°
2026-04-30 18:13 37.18468 -3.99038 21550 ft 415 kts 17°
2026-04-30 18:13 37.25892 -3.96232 22805 ft 423 kts 15°
2026-04-30 18:14 37.32505 -3.93795 23802 ft 430 kts 15°
2026-04-30 18:15 37.41200 -3.90550 24832 ft 438 kts 15°
2026-04-30 18:15 37.50024 -3.87237 25778 ft 446 kts 15°
2026-04-30 18:16 37.55036 -3.85353 26318 ft 450 kts 15°
2026-04-30 18:16 37.61035 -3.83087 26928 ft 455 kts 15°
2026-04-30 18:17 37.64085 -3.81933 27222 ft 458 kts 15°
2026-04-30 18:17 37.67143 -3.80773 27592 ft 460 kts 12°
2026-04-30 18:17 37.73323 -3.78434 28185 ft 465 kts 12°
2026-04-30 18:18 37.76433 -3.77260 28462 ft 467 kts 12°
2026-04-30 18:18 37.79557 -3.76083 28741 ft 469 kts 12°
2026-04-30 18:18 37.82649 -3.74915 29010 ft 471 kts 12°
2026-04-30 18:18 37.85799 -3.73724 29292 ft 473 kts 12°
2026-04-30 18:19 37.88963 -3.72525 29559 ft 475 kts 13°
2026-04-30 18:19 37.92141 -3.71317 29803 ft 477 kts 12°
2026-04-30 18:19 37.95323 -3.70101 30059 ft 479 kts 13°
2026-04-30 18:19 37.98525 -3.68875 30261 ft 481 kts 13°
2026-04-30 18:20 38.01731 -3.67648 30477 ft 482 kts 13°
2026-04-30 18:20 38.04951 -3.66415 30672 ft 484 kts 13°
2026-04-30 18:20 38.08128 -3.65199 30948 ft 483 kts 13°
2026-04-30 18:20 38.11343 -3.63970 31238 ft 482 kts 12°
2026-04-30 18:21 38.14570 -3.62830 31516 ft 479 kts
2026-04-30 18:21 38.17843 -3.62216 31782 ft 473 kts 359°
2026-04-30 18:21 38.21122 -3.61913 32057 ft 472 kts 359°
2026-04-30 18:21 38.24398 -3.61603 32332 ft 472 kts 359°
2026-04-30 18:22 38.27671 -3.61286 32614 ft 472 kts 359°
2026-04-30 18:22 38.34212 -3.60647 33183 ft 471 kts 359°
2026-04-30 18:22 38.37478 -3.60328 33455 ft 471 kts 359°
2026-04-30 18:23 38.40740 -3.60011 33728 ft 470 kts 359°
2026-04-30 18:23 38.43997 -3.59695 34009 ft 469 kts 359°
2026-04-30 18:23 38.47252 -3.59377 34232 ft 469 kts 359°
2026-04-30 18:23 38.50503 -3.59062 34454 ft 468 kts 359°
2026-04-30 18:24 38.56956 -3.58441 34884 ft 468 kts 359°
2026-04-30 18:24 38.60196 -3.58126 35086 ft 467 kts 359°
2026-04-30 18:25 38.66698 -3.57491 35286 ft 470 kts
2026-04-30 18:25 38.73225 -3.56854 35618 ft 470 kts
2026-04-30 18:25 38.76491 -3.56534 35810 ft 470 kts
2026-04-30 18:26 38.83008 -3.55896 35984 ft 467 kts
2026-04-30 18:26 38.86212 -3.55579 35986 ft 467 kts
2026-04-30 18:27 38.95927 -3.54617 35978 ft 466 kts
2026-04-30 18:28 39.05591 -3.53674 35976 ft 465 kts
2026-04-30 18:28 39.15277 -3.52710 35978 ft 465 kts
2026-04-30 18:29 39.28192 -3.51402 35980 ft 466 kts
2026-04-30 18:30 39.41130 -3.50118 35978 ft 467 kts
2026-04-30 18:31 39.50846 -3.49144 35976 ft 467 kts
2026-04-30 18:32 39.60522 -3.48165 35973 ft 467 kts
2026-04-30 18:33 39.70242 -3.47190 35971 ft 467 kts
2026-04-30 18:33 39.79953 -3.46580 35973 ft 462 kts 351°
2026-04-30 18:34 39.89583 -3.47575 35963 ft 463 kts 352°
2026-04-30 18:35 39.96008 -3.48218 35962 ft 463 kts 352°
2026-04-30 18:35 40.02437 -3.48862 35954 ft 464 kts 352°
2026-04-30 18:36 40.12100 -3.49846 35957 ft 465 kts 352°
2026-04-30 18:37 40.21775 -3.50817 36001 ft 465 kts 352°
2026-04-30 18:37 40.28238 -3.51474 36035 ft 466 kts 352°
2026-04-30 18:38 40.34697 -3.52142 36060 ft 466 kts 352°
2026-04-30 18:38 40.41117 -3.52802 36088 ft 466 kts 352°
2026-04-30 18:39 40.47586 -3.53467 36093 ft 466 kts 352°
2026-04-30 18:39 40.54061 -3.54133 36094 ft 467 kts 352°
2026-04-30 18:40 40.60545 -3.54796 36070 ft 467 kts 352°
2026-04-30 18:40 40.67033 -3.55466 36037 ft 468 kts 352°
2026-04-30 18:41 40.73525 -3.56132 35999 ft 468 kts 352°
2026-04-30 18:41 40.80024 -3.56803 35973 ft 469 kts 352°
2026-04-30 18:42 40.86526 -3.57475 35702 ft 468 kts 353°
2026-04-30 18:42 40.92924 -3.58140 35883 ft 458 kts 354°
2026-04-30 18:42 40.96095 -3.58473 35886 ft 456 kts 354°
2026-04-30 18:45 41.30837 -3.60887 35883 ft 456 kts 358°
2026-04-30 18:46 41.37178 -3.61001 35890 ft 455 kts 357°
2026-04-30 18:46 41.43515 -3.61171 35886 ft 455 kts 357°
2026-04-30 18:47 41.49847 -3.61352 35890 ft 455 kts 357°
2026-04-30 18:47 41.56181 -3.61440 35891 ft 455 kts 358°
2026-04-30 18:48 41.62519 -3.61406 35893 ft 455 kts 359°
2026-04-30 18:48 41.68850 -3.61354 35896 ft 455 kts 358°
2026-04-30 18:49 41.75182 -3.61344 35898 ft 455 kts 358°
2026-04-30 18:49 41.81510 -3.61356 35904 ft 455 kts 358°
2026-04-30 18:50 41.87837 -3.61363 35908 ft 454 kts 358°
2026-04-30 18:50 41.94114 -3.61363 35915 ft 454 kts 358°
2026-04-30 18:51 42.00426 -3.61359 35927 ft 454 kts 358°
2026-04-30 18:51 42.06732 -3.61501 35978 ft 453 kts 355°
2026-04-30 18:52 42.13018 -3.61957 36033 ft 452 kts 354°
2026-04-30 18:52 42.19289 -3.62461 36086 ft 452 kts 354°
2026-04-30 18:53 42.25567 -3.62896 36139 ft 452 kts 355°
2026-04-30 18:53 42.31844 -3.63285 36151 ft 451 kts 355°
2026-04-30 18:54 42.38085 -3.63965 36151 ft 449 kts 349°
2026-04-30 18:54 42.44261 -3.65196 36152 ft 448 kts 349°
2026-04-30 18:55 42.50429 -3.66431 36100 ft 448 kts 349°
2026-04-30 18:55 42.59676 -3.68276 36022 ft 447 kts 349°
2026-04-30 18:56 42.68911 -3.70121 35941 ft 447 kts 349°
2026-04-30 18:57 42.78162 -3.71739 35920 ft 447 kts 350°
2026-04-30 18:57 42.84339 -3.72734 35911 ft 447 kts 350°
2026-04-30 18:58 42.93585 -3.74295 35901 ft 446 kts 349°
2026-04-30 18:59 43.02817 -3.75903 35899 ft 446 kts 349°
2026-04-30 19:00 43.15120 -3.78023 35964 ft 445 kts 349°
2026-04-30 19:01 43.27399 -3.80133 36082 ft 445 kts 349°
2026-04-30 19:02 43.36600 -3.81735 36150 ft 444 kts 349°
2026-04-30 19:03 43.48858 -3.83882 36152 ft 444 kts 349°
2026-04-30 19:04 43.61060 -3.86008 36052 ft 443 kts 349°
2026-04-30 19:05 43.73287 -3.88149 35923 ft 443 kts 349°
2026-04-30 19:06 43.85500 -3.90301 35875 ft 442 kts 349°
2026-04-30 19:06 43.94647 -3.91923 35880 ft 442 kts 349°
2026-04-30 19:07 44.03789 -3.93555 35890 ft 441 kts 349°
2026-04-30 19:08 44.15959 -3.95716 35895 ft 441 kts 349°
2026-04-30 19:09 44.25079 -3.97338 35901 ft 440 kts 349°
2026-04-30 19:09 44.30115 -3.98308 35903 ft 438 kts 344°
2026-04-30 19:10 44.35737 -4.01235 35902 ft 428 kts 326°
2026-04-30 19:10 44.40805 -4.05585 35902 ft 427 kts 325°
2026-04-30 19:11 44.48406 -4.12143 35903 ft 428 kts 325°
2026-04-30 19:12 44.53469 -4.16523 35906 ft 428 kts 325°
2026-04-30 19:12 44.58532 -4.20929 35899 ft 428 kts 324°
2026-04-30 19:13 44.68629 -4.29726 35923 ft 429 kts 325°
2026-04-30 19:14 44.73696 -4.34150 35926 ft 429 kts 324°
2026-04-30 19:14 44.78757 -4.38586 35934 ft 429 kts 324°
2026-04-30 19:15 44.83824 -4.43034 35929 ft 429 kts 324°
2026-04-30 19:15 44.91424 -4.49714 36150 ft 429 kts 324°
2026-04-30 19:16 44.96488 -4.54195 36155 ft 430 kts 324°
2026-04-30 19:17 45.04093 -4.60925 36147 ft 430 kts 324°
2026-04-30 19:17 45.11704 -4.67670 36141 ft 431 kts 324°
2026-04-30 19:18 45.19316 -4.74439 36150 ft 431 kts 324°
2026-04-30 19:19 45.24389 -4.78979 36148 ft 431 kts 324°
2026-04-30 19:19 45.32004 -4.85791 36149 ft 431 kts 324°
2026-04-30 19:20 45.37082 -4.90346 36149 ft 432 kts 324°
2026-04-30 19:21 45.44660 -4.97168 36148 ft 432 kts 324°
2026-04-30 19:22 45.54823 -5.06354 36146 ft 433 kts 324°
2026-04-30 19:23 45.70056 -5.20188 36144 ft 434 kts 324°
2026-04-30 19:24 45.77699 -5.27166 36144 ft 434 kts 324°
2026-04-30 19:25 45.90419 -5.38830 36142 ft 435 kts 324°
2026-04-30 19:26 46.00628 -5.48229 36139 ft 436 kts 323°
2026-04-30 19:27 46.08295 -5.55325 36141 ft 437 kts 323°
2026-04-30 19:28 46.15964 -5.62439 36137 ft 437 kts 323°
2026-04-30 19:29 46.26162 -5.71958 36139 ft 438 kts 323°
2026-04-30 19:30 46.36428 -5.81544 36132 ft 439 kts 323°
2026-04-30 19:31 46.46637 -5.91155 36141 ft 439 kts 323°
2026-04-30 19:31 46.54325 -5.98415 36135 ft 440 kts 323°
2026-04-30 19:32 46.59458 -6.03270 36129 ft 440 kts 323°
2026-04-30 19:32 46.64593 -6.08139 36125 ft 441 kts 323°
2026-04-30 19:33 46.69736 -6.13021 36127 ft 441 kts 323°
2026-04-30 19:33 46.74879 -6.17925 36127 ft 442 kts 323°
2026-04-30 19:34 46.80022 -6.22849 36130 ft 442 kts 322°
2026-04-30 19:35 46.87745 -6.30256 36119 ft 443 kts 322°
2026-04-30 19:35 46.92898 -6.35202 36124 ft 443 kts 322°
2026-04-30 19:36 46.98055 -6.40169 36125 ft 444 kts 322°
2026-04-30 19:36 47.05791 -6.47636 36126 ft 444 kts 322°
2026-04-30 19:37 47.10949 -6.52637 36123 ft 445 kts 322°
2026-04-30 19:37 47.16110 -6.57643 36122 ft 445 kts 322°
2026-04-30 19:38 47.21275 -6.62681 36121 ft 445 kts 322°
2026-04-30 19:38 47.26437 -6.67725 36123 ft 446 kts 322°
2026-04-30 19:39 47.31574 -6.72744 36121 ft 446 kts 322°
2026-04-30 19:39 47.36747 -6.77810 36114 ft 447 kts 322°
2026-04-30 19:40 47.41925 -6.82898 36119 ft 447 kts 322°
2026-04-30 19:40 47.47099 -6.88009 36115 ft 448 kts 322°
2026-04-30 19:41 47.52282 -6.93123 36110 ft 448 kts 322°
2026-04-30 19:41 47.57469 -6.98254 36112 ft 449 kts 321°
2026-04-30 19:42 47.62662 -7.03401 36111 ft 449 kts 321°
2026-04-30 19:42 47.67855 -7.08566 36108 ft 449 kts 321°
2026-04-30 19:43 47.73044 -7.13758 36110 ft 450 kts 321°
2026-04-30 19:44 47.80844 -7.21563 36108 ft 451 kts 321°
2026-04-30 19:44 47.86051 -7.26775 36105 ft 451 kts 321°
2026-04-30 19:45 47.91260 -7.32014 36103 ft 452 kts 321°
2026-04-30 19:45 47.96470 -7.37266 36101 ft 453 kts 321°
2026-04-30 19:46 48.01694 -7.42534 36099 ft 453 kts 321°
2026-04-30 19:46 48.06921 -7.47820 36096 ft 454 kts 321°
2026-04-30 19:47 48.12138 -7.53136 36097 ft 454 kts 321°
2026-04-30 19:47 48.17363 -7.58461 36098 ft 455 kts 321°
2026-04-30 19:48 48.22595 -7.63802 36093 ft 455 kts 321°
2026-04-30 19:48 48.27834 -7.69162 36096 ft 456 kts 321°
2026-04-30 19:49 48.33038 -7.74508 36095 ft 456 kts 321°
2026-04-30 19:49 48.40909 -7.82603 36097 ft 457 kts 321°
2026-04-30 19:50 48.46165 -7.88031 36085 ft 457 kts 320°
2026-04-30 19:50 48.51415 -7.93476 36094 ft 458 kts 320°
2026-04-30 19:51 48.56835 -7.98501 36080 ft 465 kts 332°
2026-04-30 19:51 48.63120 -8.01099 36081 ft 473 kts 350°
2026-04-30 19:52 48.69663 -8.02359 36074 ft 474 kts 350°
2026-04-30 19:52 48.76225 -8.03641 36072 ft 475 kts 349°
2026-04-30 19:53 48.82788 -8.04933 36075 ft 476 kts 349°
2026-04-30 19:53 48.89361 -8.06237 36074 ft 477 kts 349°
2026-04-30 19:54 48.95897 -8.07546 36072 ft 477 kts 349°
2026-04-30 19:54 49.02483 -8.08868 36070 ft 478 kts 349°
2026-04-30 19:55 49.09080 -8.10188 36069 ft 478 kts 349°
2026-04-30 19:55 49.15689 -8.11513 36068 ft 479 kts 350°
2026-04-30 19:56 49.22305 -8.12843 36068 ft 480 kts 350°
2026-04-30 19:56 49.28923 -8.14168 36069 ft 480 kts 350°
2026-04-30 19:57 49.35556 -8.15498 36071 ft 481 kts 350°
2026-04-30 19:57 49.42187 -8.16856 36071 ft 481 kts 350°
2026-04-30 19:58 49.48826 -8.18215 36068 ft 481 kts 350°
2026-04-30 19:58 49.55472 -8.19567 36069 ft 482 kts 350°
2026-04-30 19:59 49.62077 -8.20913 36070 ft 482 kts 350°
2026-04-30 20:00 49.72053 -8.22969 36064 ft 482 kts 350°
2026-04-30 20:00 49.78708 -8.24349 36059 ft 483 kts 350°
2026-04-30 20:01 49.87618 -8.26188 36064 ft 483 kts 350°
2026-04-30 20:01 49.94241 -8.27543 36072 ft 483 kts 351°
2026-04-30 20:02 50.04238 -8.29615 36066 ft 483 kts 351°
2026-04-30 20:03 50.14237 -8.31716 36063 ft 483 kts 351°
2026-04-30 20:03 50.20900 -8.33100 36057 ft 483 kts 351°
2026-04-30 20:04 50.27570 -8.34498 36058 ft 483 kts 351°
2026-04-30 20:04 50.30909 -8.35205 35731 ft 485 kts 351°
2026-04-30 20:05 50.37568 -8.36622 34853 ft 481 kts 351°
2026-04-30 20:05 50.40882 -8.37328 34422 ft 480 kts 351°
2026-04-30 20:05 50.47486 -8.38724 33504 ft 477 kts 351°
2026-04-30 20:06 50.50767 -8.39413 33020 ft 475 kts 351°
2026-04-30 20:06 50.54034 -8.40103 32549 ft 473 kts 351°
2026-04-30 20:06 50.57285 -8.40797 32081 ft 470 kts 351°
2026-04-30 20:06 50.60518 -8.41488 31620 ft 468 kts 351°
2026-04-30 20:07 50.63738 -8.42179 31171 ft 465 kts 351°
2026-04-30 20:07 50.66937 -8.42865 30727 ft 463 kts 351°
2026-04-30 20:07 50.73299 -8.44231 29818 ft 459 kts 351°
2026-04-30 20:08 50.76455 -8.44907 29313 ft 457 kts 351°
2026-04-30 20:08 50.79594 -8.45580 28813 ft 454 kts 351°
2026-04-30 20:08 50.82717 -8.46255 28325 ft 452 kts 351°
2026-04-30 20:08 50.85822 -8.46928 27844 ft 449 kts 352°
2026-04-30 20:09 50.88913 -8.47600 27371 ft 447 kts 352°
2026-04-30 20:09 50.91988 -8.48269 26906 ft 445 kts 352°
2026-04-30 20:09 50.98050 -8.49587 26051 ft 439 kts 352°
2026-04-30 20:10 51.04077 -8.50757 25220 ft 434 kts 355°
2026-04-30 20:10 51.07073 -8.51190 24807 ft 431 kts 356°
2026-04-30 20:10 51.10049 -8.51577 24411 ft 428 kts 356°
2026-04-30 20:11 51.15958 -8.52340 23618 ft 424 kts 356°
2026-04-30 20:11 51.18887 -8.52748 23156 ft 421 kts 356°
2026-04-30 20:11 51.21800 -8.53173 22700 ft 419 kts 355°
2026-04-30 20:12 51.27573 -8.54031 21796 ft 415 kts 355°
2026-04-30 20:12 51.30436 -8.54458 21349 ft 412 kts 355°
2026-04-30 20:12 51.33288 -8.54880 20922 ft 410 kts 355°
2026-04-30 20:13 51.36126 -8.55298 20502 ft 408 kts 355°
2026-04-30 20:13 51.38949 -8.55714 20067 ft 407 kts 355°
2026-04-30 20:13 51.41761 -8.56131 19655 ft 405 kts 354°
2026-04-30 20:13 51.42759 -8.56342 19517 ft 404 kts 350°
2026-04-30 20:14 51.45486 -8.57373 19111 ft 402 kts 345°
2026-04-30 20:14 51.48190 -8.58476 18686 ft 401 kts 345°
2026-04-30 20:14 51.50887 -8.59577 18255 ft 400 kts 345°
2026-04-30 20:14 51.53578 -8.60680 17773 ft 399 kts 345°
2026-04-30 20:15 51.56266 -8.61786 17292 ft 397 kts 345°
2026-04-30 20:15 51.58939 -8.62884 16818 ft 396 kts 345°
2026-04-30 20:15 51.61607 -8.63975 16351 ft 395 kts 346°
2026-04-30 20:15 51.64268 -8.65062 15897 ft 394 kts 346°
2026-04-30 20:16 51.66919 -8.66146 15445 ft 393 kts 346°
2026-04-30 20:16 51.69559 -8.67230 15000 ft 391 kts 346°
2026-04-30 20:16 51.72192 -8.68318 14562 ft 390 kts 346°
2026-04-30 20:16 51.74814 -8.69406 14125 ft 388 kts 346°
2026-04-30 20:17 51.77421 -8.70483 13677 ft 386 kts 346°
2026-04-30 20:17 51.80018 -8.71536 13200 ft 384 kts 347°
2026-04-30 20:17 51.82608 -8.72502 12730 ft 381 kts 348°
2026-04-30 20:17 51.85191 -8.73407 12262 ft 378 kts 348°
2026-04-30 20:18 51.87758 -8.74284 11861 ft 373 kts 348°
2026-04-30 20:18 51.90279 -8.75148 11487 ft 369 kts 348°
2026-04-30 20:18 51.92758 -8.76011 11047 ft 357 kts 348°
2026-04-30 20:18 51.95135 -8.76851 10629 ft 343 kts 348°
2026-04-30 20:19 51.97392 -8.77656 10224 ft 330 kts 348°
2026-04-30 20:19 51.99599 -8.78448 9806 ft 320 kts 348°
2026-04-30 20:19 52.01751 -8.78927 9354 ft 306 kts
2026-04-30 20:19 52.03677 -8.77858 8910 ft 284 kts 42°
2026-04-30 20:20 52.05011 -8.75618 8485 ft 274 kts 60°
2026-04-30 20:20 52.06032 -8.73018 8051 ft 273 kts 65°
2026-04-30 20:20 52.06985 -8.70348 7614 ft 273 kts 64°
2026-04-30 20:20 52.07898 -8.67671 7186 ft 264 kts 75°
2026-04-30 20:21 52.08006 -8.64881 6775 ft 240 kts 112°
2026-04-30 20:21 52.07083 -8.62786 6355 ft 229 kts 149°
2026-04-30 20:21 52.05618 -8.61805 5922 ft 229 kts 161°
2026-04-30 20:21 52.04102 -8.60973 5478 ft 229 kts 160°
2026-04-30 20:22 52.02628 -8.60113 5054 ft 221 kts 160°
2026-04-30 20:22 52.01203 -8.59262 4627 ft 216 kts 160°
2026-04-30 20:22 51.99808 -8.58430 4189 ft 212 kts 160°
2026-04-30 20:22 51.98436 -8.57611 3755 ft 209 kts 160°
2026-04-30 20:23 51.97067 -8.56795 3254 ft 213 kts 160°
2026-04-30 20:23 51.95684 -8.55973 2830 ft 207 kts 159°
2026-04-30 20:23 51.94370 -8.55191 2528 ft 196 kts 159°
2026-04-30 20:23 51.93116 -8.54445 2286 ft 186 kts 159°
2026-04-30 20:24 51.91941 -8.53747 2016 ft 174 kts 158°
2026-04-30 20:24 51.90848 -8.53098 1773 ft 160 kts 159°
2026-04-30 20:24 51.89845 -8.52503 1562 ft 148 kts 158°
2026-04-30 20:24 51.88900 -8.51942 1363 ft 143 kts 157°
2026-04-30 20:25 51.87034 -8.50829 934 ft 143 kts 156°
2026-04-30 20:25 51.86115 -8.50267 756 ft 140 kts 156°
2026-04-30 20:26 51.84342 -8.49227 505 ft 117 kts 160°
2026-04-30 20:26 51.83463 -8.48712 503 ft 28 kts 157°
2026-04-30 20:26 51.83305 -8.48592 503 ft 17 kts 132°
2026-04-30 20:27 51.83282 -8.48605 504 ft 8 kts 311°
2026-04-30 20:27 51.83551 -8.48765 501 ft 33 kts 340°
2026-04-30 20:28 51.84016 -8.49039 503 ft 35 kts 340°
2026-04-30 20:28 51.84474 -8.49314 502 ft 33 kts 339°
2026-04-30 20:29 51.84718 -8.49458 502 ft 8 kts 340°
2026-04-30 20:30 51.84799 -8.49307 504 ft 2 kts 71°
2026-04-30 20:30 51.84879 -8.49132 504 ft 6 kts 71°
2026-04-30 20:31 51.84890 -8.49084 504 ft 0 kts 70°